N5CSU Weather Reports


time (UTC)temp
F
wind
direction
speed
knots
gust
knots
rain 1hr
in
rain 24hr
in
rain mn
in
humidity
%
barometer
mb
20260508111428 59 198 0.0 0.0 0.00 0.00 0.00 93 1015.8
20260508110925 59 198 0.0 0.0 0.00 0.00 0.00 93 1015.8
20260508110423 59 198 0.0 0.0 0.00 0.00 0.00 93 1015.6
20260508105922 59 201 0.0 0.0 0.00 0.00 0.00 93 1015.7
20260508105419 59 202 0.0 0.0 0.00 0.00 0.00 93 1015.4
20260508104916 59 202 0.0 0.0 0.00 0.00 0.00 93 1015.2
20260508104413 58 202 0.0 0.0 0.00 0.00 0.00 92 1014.9
20260508103910 58 202 0.0 0.0 0.00 0.00 0.00 92 1014.8
20260508103407 58 203 0.0 0.0 0.00 0.00 0.00 92 1014.6
20260508102904 59 200 0.0 0.0 0.00 0.00 0.00 92 1014.0
20260508102403 59 200 0.0 0.0 0.00 0.00 0.00 92 1014.2
20260508101900 59 196 0.0 0.0 0.00 0.00 0.00 92 1014.0
20260508101356 59 196 0.0 0.0 0.00 0.00 0.00 92 1014.1
20260508100854 59 196 0.0 0.0 0.00 0.00 0.00 92 1014.2
20260508100353 59 195 0.0 0.0 0.00 0.00 0.00 92 1014.1
20260508095848 59 196 0.0 0.0 0.00 0.00 0.00 91 1014.4
20260508095346 59 196 0.0 0.0 0.00 0.00 0.00 91 1014.2
20260508094842 59 195 0.0 0.0 0.00 0.00 0.00 91 1014.2
20260508094340 60 199 0.0 0.0 0.00 0.00 0.00 91 1014.5
20260508093837 60 200 0.0 0.0 0.00 0.00 0.00 90 1014.5
20260508093334 60 200 0.0 0.0 0.00 0.00 0.00 90 1014.4
20260508092831 60 200 0.0 0.0 0.00 0.00 0.00 90 1014.5
20260508092329 60 196 0.0 0.0 0.00 0.00 0.00 90 1014.3
20260508091827 60 196 0.0 0.0 0.00 0.00 0.00 90 1014.5
20260508091323 61 204 0.0 0.0 0.00 0.00 0.00 90 1014.5
20260508090821 60 204 0.0 0.0 0.00 0.00 0.00 90 1014.4
20260508090320 60 204 0.0 0.0 0.00 0.00 0.00 90 1014.5
20260508085815 60 206 0.0 0.0 0.00 0.00 0.00 91 1014.3
20260508085312 60 202 0.0 0.0 0.00 0.00 0.00 91 1014.4
20260508084808 60 197 0.0 0.0 0.00 0.00 0.00 92 1014.2
20260508084306 60 195 0.0 0.0 0.00 0.00 0.00 92 1014.5
20260508083803 60 195 0.0 0.0 0.00 0.00 0.00 92 1014.7
20260508083301 60 195 0.0 0.0 0.00 0.00 0.00 92 1015.0
20260508082800 60 195 0.0 0.0 0.00 0.00 0.00 92 1015.4
20260508082258 60 196 0.0 0.0 0.00 0.00 0.00 91 1015.4
20260508081755 60 196 0.0 0.0 0.00 0.00 0.00 91 1015.3
20260508081252 60 196 0.0 0.0 0.00 0.00 0.00 91 1015.6
20260508080748 60 196 0.0 0.0 0.00 0.00 0.00 92 1015.7
20260508080247 60 196 0.0 0.0 0.00 0.00 0.00 92 1015.8
20260508075743 60 196 0.0 0.0 0.00 0.00 0.00 92 1015.7
20260508075240 60 196 0.0 0.0 0.00 0.00 0.00 92 1015.5
20260508074737 60 196 0.0 0.0 0.00 0.00 0.00 92 1015.7
20260508074235 60 196 0.0 0.0 0.00 0.00 0.00 92 1015.4
20260508073732 60 195 0.0 0.0 0.00 0.00 0.00 92 1015.5
20260508073230 60 195 0.0 0.0 0.00 0.00 0.00 92 1015.2
20260508072726 60 201 0.0 0.0 0.00 0.00 0.00 92 1015.4
20260508072223 59 198 0.0 0.0 0.00 0.00 0.00 92 1015.4
20260508071720 59 199 0.0 0.0 0.00 0.00 0.00 92 1015.5
20260508071218 59 199 0.0 0.0 0.00 0.00 0.00 92 1015.4
20260508070715 59 199 0.0 0.0 0.00 0.00 0.00 92 1015.4
20260508070214 59 199 0.0 0.0 0.00 0.00 0.00 92 1015.4
20260508065710 59 199 0.0 0.0 0.00 0.00 0.00 92 1015.6
20260508065209 59 199 0.0 0.0 0.00 0.00 0.00 92 1015.5
20260508064706 59 199 0.0 0.0 0.00 0.00 0.00 92 1015.5
20260508064204 59 199 0.0 0.0 0.00 0.00 0.00 92 1015.8
20260508063701 59 199 0.0 0.0 0.00 0.00 0.00 92 1016.0
20260508063159 59 199 0.0 0.0 0.00 0.00 0.00 92 1016.1
20260508062656 59 199 0.0 0.0 0.00 0.00 0.00 92 1015.9
20260508062153 59 199 0.0 0.0 0.00 0.00 0.00 92 1016.0
20260508061650 59 199 0.0 0.0 0.00 0.00 0.00 92 1016.0
20260508061148 59 199 0.0 0.0 0.00 0.00 0.00 92 1016.1
20260508060644 59 199 0.0 0.0 0.00 0.00 0.00 92 1016.1
20260508060142 59 199 0.0 0.0 0.00 0.00 0.00 92 1016.3
20260508055637 59 190 0.0 0.0 0.00 0.00 0.00 91 1015.9
20260508055134 59 198 0.0 0.0 0.00 0.00 0.00 91 1016.1
20260508054630 59 195 0.0 0.0 0.00 0.00 0.00 91 1016.0
20260508054128 59 195 0.0 0.0 0.00 0.00 0.00 91 1016.0
20260508053625 59 195 0.0 0.0 0.00 0.00 0.00 91 1015.9
20260508053123 59 195 0.0 0.0 0.00 0.00 0.00 90 1016.0
20260508052620 59 195 0.0 0.0 0.00 0.00 0.00 90 1015.9
20260508052117 59 195 0.0 0.0 0.00 0.00 0.00 90 1015.8
20260508051613 59 195 0.0 0.0 0.00 0.00 0.00 90 1016.0
20260508051108 59 195 0.0 0.0 0.00 0.00 0.00 90 1016.1
20260508050604 59 195 0.0 0.0 0.00 0.00 0.00 90 1016.0
20260508050103 59 196 0.0 0.0 0.00 0.00 0.00 90 1016.0
20260508045558 59 196 0.0 0.0 0.00 0.00 0.00 89 1016.1
20260508045056 59 197 0.0 0.0 0.00 0.00 0.00 89 1016.1
20260508044553 60 197 0.0 0.0 0.00 0.00 0.00 89 1016.3
20260508044049 60 197 0.0 0.0 0.00 0.00 0.00 88 1016.4
20260508043546 60 197 0.0 0.0 0.00 0.00 0.00 88 1016.1
20260508043044 60 197 0.0 0.0 0.00 0.00 0.00 88 1016.0
20260508042540 60 196 0.0 0.0 0.00 0.00 0.00 88 1016.0
20260508042037 60 196 0.0 0.0 0.00 0.00 0.00 87 1016.0
20260508041533 60 196 0.0 0.0 0.00 0.00 0.00 87 1015.8
20260508041030 60 198 0.0 0.0 0.00 0.00 0.00 87 1016.0
20260508040527 60 198 0.0 0.0 0.00 0.00 0.00 87 1015.9
20260508040024 60 198 0.0 0.0 0.00 0.00 0.00 87 1015.9
20260508035521 60 198 0.0 0.0 0.00 0.00 0.00 86 1015.9
20260508035018 60 198 0.0 0.0 0.00 0.00 0.00 86 1015.9
20260508034510 60 198 0.0 0.0 0.00 0.00 0.00 86 1015.7
20260508034007 61 198 0.0 0.0 0.00 0.00 0.00 85 1015.7
20260508033505 61 198 0.0 0.0 0.00 0.00 0.00 85 1015.6
20260508033002 61 198 0.0 0.0 0.00 0.00 0.00 85 1015.5
20260508032459 61 198 0.0 0.0 0.00 0.00 0.00 85 1015.5
20260508031956 61 198 0.0 0.0 0.00 0.00 0.00 84 1015.7
20260508031454 61 198 0.0 0.0 0.00 0.00 0.00 84 1015.8
20260508030948 61 198 0.0 0.0 0.00 0.00 0.00 84 1015.7
20260508030446 61 198 0.0 0.0 0.00 0.00 0.00 84 1015.6
20260508025943 61 198 0.0 0.0 0.00 0.00 0.00 83 1015.6
20260508025439 62 198 0.0 0.0 0.00 0.00 0.00 83 1015.6
20260508024937 62 198 0.0 0.0 0.00 0.00 0.00 83 1015.4
20260508024433 62 200 0.0 0.0 0.00 0.00 0.00 83 1015.5
20260508023930 62 200 0.0 0.0 0.00 0.00 0.00 83 1015.5
20260508023427 62 200 0.0 0.0 0.00 0.00 0.00 82 1015.4
20260508022924 62 200 0.0 0.0 0.00 0.00 0.00 82 1015.5
20260508022419 62 200 0.0 0.0 0.00 0.00 0.00 82 1015.4
20260508021916 62 200 0.0 0.0 0.00 0.00 0.00 81 1015.5
20260508021413 62 200 0.0 0.0 0.00 0.00 0.00 81 1015.3
20260508020908 62 201 0.0 0.0 0.00 0.00 0.00 80 1015.2
20260508020407 62 201 0.0 0.0 0.00 0.00 0.00 80 1015.1
20260508015903 63 201 0.0 0.0 0.00 0.00 0.00 79 1015.1
20260508015401 63 201 0.0 0.0 0.00 0.00 0.00 79 1015.1
20260508014857 63 201 0.0 0.0 0.00 0.00 0.00 79 1015.1
20260508014355 63 201 0.0 0.0 0.00 0.00 0.00 78 1015.1
20260508013855 63 202 0.0 0.0 0.00 0.00 0.00 78 1015.3
20260508013351 64 203 0.0 0.0 0.00 0.00 0.00 78 1015.0
20260508012849 64 201 0.0 0.0 0.00 0.00 0.00 77 1015.3
20260508012346 64 201 0.0 0.0 0.00 0.00 0.00 76 1015.3
20260508011844 64 201 0.0 0.0 0.00 0.00 0.00 75 1015.3
20260508011342 64 201 0.0 0.0 0.00 0.00 0.00 74 1015.0
20260508010838 65 201 0.0 0.0 0.00 0.00 0.00 74 1015.1
20260508010336 65 210 0.0 0.0 0.00 0.00 0.00 73 1015.4
20260508005833 65 194 0.0 0.0 0.00 0.00 0.00 73 1015.2
20260508005329 65 194 0.0 0.0 0.00 0.00 0.00 72 1015.2
20260508004825 65 194 0.0 0.0 0.00 0.00 0.00 73 1014.9
20260508004322 66 197 0.0 0.0 0.00 0.00 0.00 72 1015.2
20260508003818 66 197 0.0 0.0 0.00 0.00 0.00 71 1015.3
20260508003316 66 197 0.0 0.0 0.00 0.00 0.00 71 1015.2
20260508002813 66 197 0.0 0.0 0.00 0.00 0.00 71 1015.3
20260508002309 66 197 0.0 0.0 0.00 0.00 0.00 70 1015.3
20260508001806 67 197 0.0 0.0 0.00 0.00 0.00 69 1015.3
20260508001302 67 197 0.0 0.0 0.00 0.00 0.00 69 1015.3
20260508000758 67 197 0.0 0.0 0.00 0.00 0.00 68 1015.2
20260508000257 67 197 0.0 0.0 0.00 0.00 0.00 67 1015.3
20260507235752 68 197 0.0 0.0 0.00 0.00 0.00 67 1015.6
20260507235249 68 198 0.0 0.0 0.00 0.00 0.00 67 1015.3
20260507234745 68 197 0.0 0.0 0.00 0.00 0.00 65 1015.3
20260507234242 68 196 0.0 0.0 0.00 0.00 0.00 66 1015.4
20260507233738 68 190 0.0 0.0 0.00 0.00 0.00 66 1015.4
20260507233236 68 190 0.0 0.0 0.00 0.00 0.00 66 1015.5
20260507232734 68 192 0.0 0.0 0.00 0.00 0.00 66 1015.3
20260507232231 68 198 0.0 0.0 0.00 0.00 0.00 66 1015.2
20260507231727 68 201 0.0 0.0 0.00 0.00 0.00 66 1015.4
20260507231224 68 203 0.0 0.0 0.00 0.00 0.00 66 1015.5
20260507230721 68 197 0.0 0.0 0.00 0.00 0.00 68 1015.4
20260507230219 68 193 0.0 0.0 0.00 0.00 0.00 66 1015.5
20260507225717 69 185 0.0 0.0 0.00 0.00 0.00 67 1015.6
20260507225214 69 205 0.0 0.0 0.00 0.00 0.00 66 1015.6
20260507224710 69 183 0.0 0.0 0.00 0.00 0.00 66 1015.5
20260507224207 69 193 0.0 0.0 0.00 0.00 0.00 66 1015.6
20260507223703 69 184 0.0 0.0 0.00 0.00 0.00 65 1015.7
20260507223200 69 206 0.0 0.0 0.00 0.00 0.00 65 1015.6
20260507222657 69 202 0.0 0.0 0.00 0.00 0.00 65 1015.6
20260507222153 69 192 0.0 0.0 0.00 0.00 0.00 65 1015.8
20260507221650 70 201 0.0 0.0 0.00 0.00 0.00 63 1015.6
20260507221146 70 180 0.0 0.9 0.00 0.00 0.00 62 1015.3
20260507220643 70 198 0.0 0.0 0.00 0.00 0.00 61 1015.5
20260507220141 71 205 0.0 0.0 0.00 0.00 0.00 60 1015.6
20260507215637 70 202 0.0 0.0 0.00 0.00 0.00 60 1015.7
20260507215135 71 183 0.0 0.0 0.00 0.00 0.00 61 1015.8
20260507214632 71 178 0.0 0.0 0.00 0.00 0.00 60 1015.5
20260507214128 71 181 0.0 0.0 0.00 0.00 0.00 60 1015.9
20260507213625 71 169 0.0 0.0 0.00 0.00 0.00 55 1015.8
20260507213122 71 176 0.0 0.0 0.00 0.00 0.00 60 1016.0
20260507212618 70 189 0.0 0.0 0.00 0.00 0.00 60 1016.1
20260507212114 70 189 0.0 0.0 0.00 0.00 0.00 57 1016.3
20260507211611 71 188 0.0 0.0 0.00 0.00 0.00 58 1016.4
20260507211107 71 174 0.0 0.0 0.00 0.00 0.00 58 1016.4
20260507210605 71 106 0.0 0.9 0.00 0.00 0.00 57 1016.3
20260507205558 71 177 0.0 0.0 0.00 0.00 0.00 61 1016.4
20260507205054 71 186 0.0 0.0 0.00 0.00 0.00 55 1016.3
20260507204550 71 181 0.0 0.0 0.00 0.00 0.00 58 1016.3
20260507204048 71 189 0.0 0.0 0.00 0.00 0.00 57 1016.0
20260507203546 71 186 0.0 0.0 0.00 0.00 0.00 58 1016.1
20260507203043 71 194 0.0 0.0 0.00 0.00 0.00 56 1016.0
20260507202539 71 184 0.0 0.0 0.00 0.00 0.00 57 1016.3
20260507202035 71 197 0.0 0.0 0.00 0.00 0.00 58 1016.6
20260507201531 71 197 0.0 0.0 0.00 0.00 0.00 58 1016.7
20260507201027 71 190 0.0 0.0 0.00 0.00 0.00 59 1016.8
20260507200523 71 185 0.0 0.0 0.00 0.00 0.00 56 1016.8
20260507200019 71 194 0.0 0.0 0.00 0.00 0.00 55 1016.8
20260507195516 71 210 0.0 0.0 0.00 0.00 0.00 57 1016.7
20260507195014 71 180 0.0 0.0 0.00 0.00 0.00 59 1016.9
20260507194510 71 188 0.0 0.0 0.00 0.00 0.00 58 1016.8
20260507194006 71 189 0.0 0.9 0.00 0.00 0.00 57 1016.9
20260507193503 72 184 0.0 0.0 0.00 0.00 0.00 56 1017.1
20260507193000 72 192 0.0 0.0 0.00 0.00 0.00 56 1017.1
20260507192456 71 191 0.0 0.0 0.00 0.00 0.00 55 1017.4
20260507191953 72 178 0.0 0.9 0.00 0.00 0.00 56 1017.4
20260507191449 71 177 0.0 0.0 0.00 0.00 0.00 55 1017.5
20260507190946 71 178 0.0 0.0 0.00 0.00 0.00 55 1017.4
20260507190444 71 293 0.0 0.0 0.00 0.00 0.00 58 1017.4
20260507185943 71 182 0.0 0.0 0.00 0.00 0.00 56 1017.4
20260507185439 71 178 0.9 0.9 0.00 0.00 0.00 55 1017.6
20260507184936 71 161 0.0 0.0 0.00 0.00 0.00 53 1017.5
20260507184434 71 194 0.0 0.0 0.00 0.00 0.00 54 1017.6
20260507183931 71 168 0.0 0.0 0.00 0.00 0.00 56 1017.3
20260507183428 71 175 0.9 0.9 0.00 0.00 0.00 54 1017.5
20260507182925 70 193 0.0 0.9 0.00 0.00 0.00 55 1017.5
20260507182421 70 204 0.0 0.0 0.00 0.00 0.00 55 1017.7
20260507181918 70 172 1.7 1.7 0.00 0.00 0.00 56 1017.8
20260507181414 70 204 0.0 0.0 0.00 0.00 0.00 57 1017.7
20260507180910 70 194 0.0 0.0 0.00 0.00 0.00 55 1017.7
20260507180407 69 189 0.0 0.0 0.00 0.00 0.00 58 1018.0
20260507175903 69 79 0.9 0.9 0.00 0.00 0.00 52 1018.3
20260507175400 69 201 0.0 0.0 0.00 0.00 0.00 56 1018.1
20260507174858 69 176 0.0 0.0 0.00 0.00 0.00 58 1018.2
20260507174355 68 189 0.0 0.0 0.00 0.00 0.00 62 1018.3
20260507173852 68 205 0.0 0.0 0.00 0.00 0.00 59 1018.5
20260507173349 68 190 0.0 0.0 0.00 0.00 0.00 58 1018.5
20260507172846 68 191 0.0 0.0 0.00 0.00 0.00 59 1018.5
20260507172342 68 192 0.0 0.0 0.00 0.00 0.00 59 1018.8
20260507171838 68 182 0.0 0.0 0.00 0.00 0.00 62 1018.8
20260507171335 68 190 0.0 0.0 0.00 0.00 0.00 61 1019.0
20260507170832 68 189 0.0 0.0 0.00 0.00 0.00 58 1019.3
20260507170329 67 203 0.0 0.9 0.00 0.00 0.00 62 1019.2
20260507165825 67 181 0.0 0.0 0.00 0.00 0.00 60 1019.5
20260507165320 67 174 0.9 0.9 0.00 0.00 0.00 61 1019.5
20260507164817 67 190 0.0 0.9 0.00 0.00 0.00 62 1019.8
20260507164314 67 190 0.0 0.0 0.00 0.00 0.00 62 1019.8
20260507163811 66 357 0.0 0.9 0.00 0.00 0.00 60 1019.6
20260507163309 66 192 0.0 0.0 0.00 0.00 0.00 64 1019.5
20260507162805 66 185 0.0 0.0 0.00 0.00 0.00 67 1019.8
20260507162300 66 206 0.0 0.0 0.00 0.00 0.00 64 1019.9
20260507161758 66 205 0.0 0.0 0.00 0.00 0.00 65 1019.9
20260507161255 66 180 0.0 0.0 0.00 0.00 0.00 65 1019.8
20260507160750 65 186 0.9 1.7 0.00 0.00 0.00 65 1019.6
20260507160247 66 181 0.0 0.9 0.00 0.00 0.00 65 1019.6
20260507155743 65 185 0.0 0.0 0.00 0.00 0.00 66 1019.9
20260507155238 65 199 0.0 0.0 0.00 0.00 0.00 66 1019.8
20260507154736 65 180 0.0 0.0 0.00 0.00 0.00 66 1019.8
20260507154233 65 176 0.0 0.0 0.00 0.00 0.00 68 1019.9
20260507153730 65 183 0.0 0.0 0.00 0.00 0.00 68 1019.9
20260507153226 64 198 0.0 0.0 0.00 0.00 0.00 69 1020.0
20260507152722 64 166 0.0 0.0 0.00 0.00 0.00 68 1020.1
20260507152219 64 192 0.0 0.0 0.00 0.00 0.00 69 1020.1
20260507151715 64 192 0.0 0.0 0.00 0.00 0.00 70 1020.0
20260507151212 64 53 0.9 1.7 0.00 0.00 0.00 68 1020.2
20260507150708 64 174 0.0 0.0 0.00 0.00 0.00 72 1020.2
20260507150206 63 174 0.0 0.0 0.00 0.00 0.00 71 1020.2
20260507145701 63 169 0.0 0.0 0.00 0.00 0.00 71 1020.4
20260507145158 62 183 0.0 0.0 0.00 0.00 0.00 73 1020.3
20260507144654 62 169 0.0 0.0 0.00 0.00 0.00 72 1020.4
20260507144153 62 160 0.0 0.0 0.00 0.00 0.00 74 1020.3
20260507143650 62 195 0.0 0.0 0.00 0.00 0.00 77 1020.2
20260507143147 61 177 0.0 0.0 0.00 0.00 0.00 77 1020.3
20260507142642 61 188 0.0 0.0 0.00 0.00 0.00 77 1020.2
20260507142139 61 147 0.0 0.0 0.00 0.00 0.00 77 1020.5
20260507141636 60 198 0.0 0.0 0.00 0.00 0.00 79 1020.5
20260507141133 60 175 0.0 0.0 0.00 0.00 0.00 79 1020.4
20260507140629 59 183 0.0 0.0 0.00 0.00 0.00 81 1020.6
20260507140127 59 181 0.0 0.0 0.00 0.00 0.00 81 1020.6
20260507135623 59 177 0.0 0.0 0.00 0.00 0.00 80 1020.7
20260507135121 59 177 0.0 0.0 0.00 0.00 0.00 81 1020.7
20260507134617 58 163 0.0 0.0 0.00 0.00 0.00 81 1020.9
20260507134113 58 172 0.0 0.0 0.00 0.00 0.00 85 1020.9
20260507133609 57 168 0.0 0.0 0.00 0.00 0.00 87 1021.0
20260507133107 57 184 0.0 0.0 0.00 0.00 0.00 88 1020.9
20260507132603 56 185 0.0 0.0 0.00 0.00 0.00 90 1020.9
20260507132100 56 180 0.0 0.0 0.00 0.00 0.00 94 1020.9
20260507131557 56 182 0.0 0.0 0.00 0.00 0.00 95 1020.7
20260507131055 56 182 0.0 0.0 0.00 0.00 0.00 95 1020.7
20260507130551 55 181 0.0 0.0 0.00 0.00 0.00 95 1020.8
20260507130049 55 181 0.0 0.0 0.00 0.00 0.00 95 1020.9
20260507125548 55 181 0.0 0.0 0.00 0.00 0.00 95 1020.9
20260507125045 54 181 0.0 0.0 0.00 0.00 0.00 95 1020.9
20260507124541 54 181 0.0 0.0 0.00 0.00 0.00 95 1020.7
20260507124039 53 182 0.0 0.0 0.00 0.00 0.00 95 1020.7
20260507123537 53 182 0.0 0.0 0.00 0.00 0.00 95 1020.3
20260507123033 53 182 0.0 0.0 0.00 0.00 0.00 95 1020.5
20260507122528 52 182 0.0 0.0 0.00 0.00 0.00 95 1020.6
20260507122025 52 182 0.0 0.0 0.00 0.00 0.00 95 1020.6
20260507121520 52 182 0.0 0.0 0.00 0.00 0.00 95 1020.5
20260507121016 52 182 0.0 0.0 0.00 0.00 0.00 95 1020.6
20260507120513 52 182 0.0 0.0 0.00 0.00 0.00 95 1020.6
20260507120010 52 182 0.0 0.0 0.00 0.00 0.00 95 1020.5
20260507115506 52 184 0.0 0.0 0.00 0.00 0.00 95 1020.2
20260507115002 52 184 0.0 0.0 0.00 0.00 0.00 94 1020.3
20260507114458 52 184 0.0 0.0 0.00 0.00 0.00 94 1020.4
20260507113955 52 184 0.0 0.0 0.00 0.00 0.00 94 1020.2
20260507113452 52 184 0.0 0.0 0.00 0.00 0.00 94 1020.2
20260507112949 52 184 0.0 0.0 0.00 0.00 0.00 94 1019.9
20260507112447 52 184 0.0 0.0 0.00 0.00 0.00 94 1020.0
20260507111944 52 184 0.0 0.0 0.00 0.00 0.00 94 1020.0